Regional Weather Roundup
Issued by NWS Charleston, SC

Current Version | Previous Version | Text Only | Print | Product List | Glossary Off
Versions: 1 2 3 4 5 6 7 8 9 10 11 12 13 14 15 16 17 18 19 20 21 22 23 24 25 26 27 28 29 30 31 32 33 34 35 36 37 38 39 40 41 42 43 44 45 46 47 48 49 50

000
ASUS42 KCHS 161625
RWRCHS

REGIONAL WEATHER ROUNDUP
NATIONAL WEATHER SERVICE CHARLESTON SC
1200 PM EDT WED APR 16 2014

NOTE: "FAIR" INDICATES FEW OR NO CLOUDS BELOW 12,000 FEET WITH NO
SIGNIFICANT WEATHER AND/OR OBSTRUCTIONS TO VISIBILITY.

NOT ALL STATIONS ARE QUALITY CONTROLLED BY THE NATIONAL
WEATHER SERVICE. USE DATA WITH CAUTION...ESPECIALLY
DEWPOINT OBSERVATIONS.

SCZ027-030-031-034>040-042>050-161700-
...SOUTH CAROLINA...

CITY           SKY/WX    TMP DP  RH WIND       PRES   REMARKS
N CHARLESTON   MOSUNNY   55  32  41 NE12G20   30.32S
WATERFRONT PRK   N/A     50 N/A N/A NE9G16      N/A
FORT JOHNSON     N/A     48  36  61 NE9G16    30.37R
MOUNT PLEASANT FAIR     N/A N/A N/A N5        30.32S
JOHNS ISLAND   SUNNY     54  37  54 NE10G18   30.32F
PINOPOLIS        N/A     48  30  49 NE15      30.26R
MONCKS CORNER  FAIR      52  34  50 NE10G17   30.33S
SUMMERVILLE    FAIR      52  32  46 N9G20     30.33S
BEAUFORT MCAS  MOSUNNY   53  32  44 E8G18     30.32R
BEAUFORT ARPT  FAIR      52  37  58 NE15G22   30.31F
HILTON HEAD IS SUNNY     50  37  62 N10G20    30.32
GEORGETOWN     NOT AVBL
WALTERBORO     SUNNY     52  32  46 N5        30.33F
ORANGEBURG     SUNNY     50  25  37 NE10G20   30.34S
BARNWELL       FAIR      52  28  40 NE15      30.33F
AIKEN          FAIR      50  30  46 E13G21    30.36S
MANNING        FAIR      54  28  37 NE12G21   30.34S
KINGSTREE      NOT AVBL
COLUMBIA       SUNNY     51  22  31 E10G23    30.35S
SUMTER         SUNNY     50  25  37 NE15G22   30.34S
FLORENCE       SUNNY     51  26  37 NE10      30.35F
MYRTLE BEACH   SUNNY     48  34  57 N17G23    30.33R
N MYRTLE BEACH SUNNY     51  29  42 NE18      30.32S

$$

GAZ063-065-086>088-099>101-113>116-118-119-134-136>141-150-161700-
...GEORGIA...

CITY           SKY/WX    TMP DP  RH WIND       PRES   REMARKS
SAVANNAH ARPT  MOSUNNY   56  33  42 NE16G22   30.31R
HUNTER AAF     SUNNY     54  36  50 E15       30.29R
FORT STEWART   SUNNY     54  39  57 NE10G17   30.29R
STATESBORO     NOT AVBL
SYLVANIA       SUNNY     54  32  43 E12G17    30.32S
CLAXTON        FAIR      54  37  54 NE10G17   30.31S
THOMSON        SUNNY     51  30  45 E13G18    30.36F
AUGUSTA-BUSH   SUNNY     52  24  33 NE8G18    30.34R
AUGUSTA-DANIEL SUNNY     52  24  33 NE12      30.34R
SWAINSBORO     FAIR      52  32  46 E10G22    30.31S
VIDALIA        SUNNY     54  34  47 E9G18     30.30S
ALMA           SUNNY     53  35  50 E8G17     30.28R
WAYCROSS       NOT AVBL
JESUP          FAIR      54  41  62 E12G20    30.29S
BRUNSWICK      CLOUDY    55  41  58 NE15G22   30.29S
SAINT SIMONS   LGT RAIN  55  42  61 NE18G29   30.28R

$$

SCZ027-028-034-036>038-045-046-048>050-GAZ119-141-161700-
...LAKE AND SUPPLEMENTAL COASTAL OBSERVATIONS...

STATION/POSITION TIME  TEMP    WIND        PRES    WAVE   SWELL
                       AIR SEA DIR/SP/G            HT/PER HT/PER/DIR
                 (UTC) (F)     (DEG/KT/KT) (MB)    (FT/S) (FT/S/D)
UPR LAKE MARION  NOT AVBL
WINYAH BAY       1600   48      60/ 12     1027.0R
LAKE MURRAY      1600   47      50/  4/ 11 1027.1S
ACE BASIN NERRS  1600   52      30/  5     1026.0F
FORT PULASKI     1600   50 60   40/ 13/ 18 1026.5S
SAPELO ISLAND    1500   52      50/ 16     1025.0R

$$

ANZ086-088-AMZ330-350-352-354-374-454-470-161700-
...C-MAN AND BUOY OBSERVATIONS...

STATION/POSITION TIME  TEMP    WIND        PRES    WAVE   SWELL
                       AIR SEA DIR/SP/G            HT/PER HT/PER/DIR
                 (UTC) (F)     (DEG/KT/KT) (MB)    (FT/S) (FT/S/D)
FOLLY BEACH CMAN 1600   49      40/ 17/ 19 1027.3R
BUOY 41004       NOT AVBL
BUOY 41008       1600   53 63   30/ 19/ 23 1024.5R   7/ 7
5E ST. MARYS GA  1600      65                N/A     7/ 8
FRYING PAN BUOY  1600   46 65   40/ 23/ 27 1026.0R   9/ 7
BUOY 41025       NOT AVBL
CAPE LOOKOUT NC  1600   46     360/ 19/ 26 1026.8R
BUOY 41002       NOT AVBL
BUOY 41010       1600   70 76   20/ 19/ 23 1018.9S   8/ 8   2/350/14
BUOY 41012       NOT AVBL
ST AUGUSTINE FL  1600   60      20/ 23/ 25 1023.2R


$$


USA.gov is the U.S. government's official web portal to all federal, state and local government web resources and services.